Time,TemperatureF,DewpointF,PressureIn,WindDirection,WindDirectionDegrees,WindSpeedMPH,WindSpeedGustMPH,Humidity,HourlyPrecipIn,Conditions,Clouds,dailyrainin,SoftwareType,DateUTC
2013-08-09 11:40:00,80.2,73.5,30.02,West,270,2.2,-999.0,80,-99.99,,,0.00,Acu-Link.com,2013-08-09 16:40:00,
2013-08-09 11:55:00,83.1,73.9,30.02,North,0,1.1,-999.0,74,-99.99,,,0.00,Acu-Link.com,2013-08-09 16:55:00,
2013-08-09 12:11:00,81.7,73.0,30.01,NNE,22,2.2,-999.0,75,-99.99,,,0.00,Acu-Link.com,2013-08-09 17:11:00,
2013-08-09 12:27:00,82.0,73.3,30.02,WNW,292,2.2,-999.0,75,-99.99,,,0.00,Acu-Link.com,2013-08-09 17:27:00,
2013-08-09 13:00:00,81.1,73.2,30.02,East,90,5.8,-999.0,77,-99.99,,,0.00,Acu-Link.com,2013-08-09 18:00:00,
2013-08-09 13:16:00,82.6,73.0,30.02,SSE,157,3.2,-999.0,73,-99.99,,,0.00,Acu-Link.com,2013-08-09 18:16:00,
2013-08-09 13:34:00,83.8,72.5,30.03,WSW,247,3.2,-999.0,69,-99.99,,,0.00,Acu-Link.com,2013-08-09 18:34:00,
2013-08-09 13:49:00,82.8,73.2,30.02,ESE,112,4.2,-999.0,73,-99.99,,,0.00,Acu-Link.com,2013-08-09 18:49:00,
2013-08-09 14:04:00,83.3,74.1,30.03,ESE,112,5.8,-999.0,74,-99.99,,,0.00,Acu-Link.com,2013-08-09 19:04:00,
2013-08-09 14:19:00,84.2,74.2,30.02,South,180,2.2,-999.0,72,-99.99,,,0.00,Acu-Link.com,2013-08-09 19:19:00,
2013-08-09 14:34:00,83.3,72.0,30.04,West,270,3.7,-999.0,69,-99.99,,,0.00,Acu-Link.com,2013-08-09 19:34:00,
2013-08-09 14:50:00,84.0,70.0,30.02,NNE,22,2.2,-999.0,63,-99.99,,,0.00,Acu-Link.com,2013-08-09 19:50:00,
2013-08-09 15:07:00,84.7,68.3,30.02,West,270,5.3,-999.0,58,-99.99,,,0.00,Acu-Link.com,2013-08-09 20:07:00,
2013-08-09 15:24:00,83.3,67.4,30.03,NNW,337,5.8,-999.0,59,-99.99,,,0.00,Acu-Link.com,2013-08-09 20:24:00,
2013-08-09 15:39:00,82.9,68.5,30.02,North,0,2.2,-999.0,62,-99.99,,,0.00,Acu-Link.com,2013-08-09 20:39:00,
2013-08-09 15:54:00,85.3,68.8,30.02,SSE,157,2.2,-999.0,58,-99.99,,,0.00,Acu-Link.com,2013-08-09 20:54:00,
2013-08-09 16:09:00,85.5,70.5,30.02,NNW,337,2.2,-999.0,61,-99.99,,,0.00,Acu-Link.com,2013-08-09 21:09:00,
2013-08-09 18:18:00,82.0,64.7,30.03,ENE,67,2.7,-999.0,56,-99.99,,,0.00,Acu-Link.com,2013-08-09 23:18:00,
2013-08-09 18:33:00,85.1,67.1,30.01,NNW,337,3.7,-999.0,55,-99.99,,,0.00,Acu-Link.com,2013-08-09 23:33:00,
2013-08-09 18:49:00,85.6,67.0,30.03,SSW,202,1.1,-999.0,54,-99.99,,,0.00,Acu-Link.com,2013-08-09 23:49:00,
2013-08-09 19:04:00,85.3,67.3,30.03,North,0,3.2,-999.0,55,-99.99,,,0.00,Acu-Link.com,2013-08-10 00:04:00,
2013-08-09 19:20:00,83.1,66.3,30.03,NNE,22,3.7,-999.0,57,-99.99,,,0.00,Acu-Link.com,2013-08-10 00:20:00,
2013-08-09 19:35:00,81.3,66.5,30.02,North,0,2.2,-999.0,61,-99.99,,,0.00,Acu-Link.com,2013-08-10 00:35:00,
2013-08-09 19:51:00,80.8,67.0,30.03,ESE,112,1.7,-999.0,63,-99.99,,,0.00,Acu-Link.com,2013-08-10 00:51:00,
2013-08-09 21:21:00,71.1,66.7,30.06,West,270,1.1,-999.0,86,-99.99,,,0.00,Acu-Link.com,2013-08-10 02:21:00,
2013-08-09 23:49:00,64.4,63.8,30.10,NW,315,0.0,-999.0,98,-99.99,,,0.00,Acu-Link.com,2013-08-10 04:49:00,